Dewpoint
53 44 40 37 43 44 38 34 15 24 24 18 21 18 5 17 21 17 21 37 39 42 48 49 48 49 49 51 54 56 57 51 52 45 46 57 68 68 68 70 71 70 71 73 74 73 73 74 75 75 75 75 75 74 74 74 74 75 75 74 74 74 74 74 74 74 74 73 73 73 73 72 72 72 72 72 72 71 70 69 69 70 70 70 70 71 71 71 70 70 69 68 67 67 68 69 69
46 44 39 36 35 34 30 32 25 23 23 21 19 16 14 16 18 12 12 33 41 46 50 51 53 54 55 56 57 57 58 59 59 59 64 67 68 69 70 71 70 70 72 73 73 73 73 74 74 75 75 75 75 74 74 74 74 75 75 74 73 74 74 74 74 74 73 73 73 73 73 72 72 72 72 72 72 72 71 70 70 70 69 69 70 71 70 71 70 70 69 68 67 66 66 68 69
51 43 33 37 38 33 33 32 27 23 22 19 19 19 19 16 15 26 37 39 43 46 48 48 49 50 51 52 52 53 54 61 63 64 65 67 67 67 70 70 70 71 72 72 73 74 74 74 74 75 75 75 75 74 74 74 74 74 74 74 73 74 74 74 74 74 73 73 73 73 73 72 72 72 72 72 72 72 71 71 70 69 69 69 69 70 70 70 70 69 69 68 67 67 66 66 68
47 47 37 37 32 29 31 32 29 23 18 17 16 17 6 24 15 34 37 40 42 42 42 43 44 44 51 52 54 57 58 60 63 64 65 66 66 68 70 71 71 71 72 72 73 73 74 74 74 74 74 74 74 74 74 74 74 74 74 74 74 74 74 74 74 74 74 73 73 73 73 73 72 72 72 72 72 71 71 71 71 70 70 69 69 69 69 69 70 69 69 68 68 67 67 67 67
40 48 38 35 33 33 29 29 29 25 22 22 16 17 21 33 34 31 34 39 41 42 43 44 44 47 49 49 50 55 59 63 64 66 66 67 68 69 70 71 70 71 71 72 73 73 73 74 74 74 74 74 74 74 74 74 74 74 73 73 74 74 74 74 74 74 74 73 73 73 73 72 72 72 71 71 71 71 71 71 71 71 71 71 71 70 69 70 70 69 69 68 67 67 66 66 67
33 37 44 34 34 34 29 29 28 23 25 21 16 14 6 18 32 28 34 39 40 41 42 43 45 48 53 57 55 59 61 59 64 65 66 66 68 70 70 71 70 70 71 72 72 72 73 74 74 74 74 74 74 74 74 74 74 73 73 72 73 73 73 74 74 73 73 73 73 73 72 72 72 72 71 71 71 71 71 71 72 72 71 71 71 71 70 70 70 69 69 68 68 67 67 66 67
32 32 32 35 32 30 29 29 27 26 26 21 17 15 13 11 29 35 37 39 41 42 45 47 50 50 51 56 60 61 63 64 64 65 66 67 69 69 70 69 69 70 71 71 72 72 73 74 74 74 74 74 74 74 73 73 73 73 73 71 71 73 73 73 73 73 73 73 73 73 72 71 72 72 71 71 72 72 72 72 72 70 69 71 70 69 70 69 70 69 69 69 68 68 68 68 68
39 28 34 27 26 25 24 25 24 24 24 20 14 12 10 11 29 34 37 39 39 39 40 40 48 54 56 59 58 62 65 65 65 66 67 68 68 69 69 69 70 70 70 71 71 72 73 73 73 73 74 74 74 74 73 73 72 72 72 71 71 72 72 73 73 73 73 73 72 72 71 71 71 71 71 71 72 72 72 72 72 71 71 69 69 70 70 70 70 69 69 69 69 68 68 68 68
30 29 37 26 27 29 20 17 19 20 20 18 16 21 34 19 19 29 32 36 36 38 42 48 49 50 55 58 59 62 64 65 66 68 68 68 68 69 69 69 70 70 70 70 70 71 72 73 72 73 73 74 74 74 73 73 73 72 72 72 70 71 72 73 73 73 73 73 72 72 71 71 71 72 72 72 72 72 72 72 72 71 71 71 70 69 69 69 70 69 70 70 69 69 69 68 68
28 32 29 28 27 25 23 21 16 13 13 14 14 13 10 17 20 25 31 34 37 41 43 49 52 53 57 58 60 61 64 66 67 67 68 68 68 69 69 69 70 70 70 69 70 70 71 72 72 72 72 73 73 73 73 73 73 72 72 72 71 71 72 72 73 73 73 72 72 72 72 72 72 72 72 72 72 72 72 72 72 71 71 69 69 69 69 70 69 68 70 70 69 69 69 68 68
29 26 33 26 25 23 23 20 21 20 17 13 11 8 7 8 22 29 34 36 39 41 46 51 52 53 54 54 57 62 65 66 66 66 67 68 68 68 68 69 69 69 69 69 69 70 70 71 72 72 72 72 73 73 73 73 72 72 72 71 71 71 72 72 73 73 73 73 73 73 73 72 72 72 72 72 72 72 72 71 71 71 71 70 70 69 69 69 69 69 69 69 70 70 69 68 68
24 19 21 23 23 22 23 23 22 20 18 14 10 10 9 6 20 33 35 36 40 44 45 45 46 51 53 56 58 62 63 64 65 66 66 68 68 68 68 68 69 69 69 69 69 69 70 70 71 72 72 72 72 73 73 73 72 72 72 71 72 72 72 71 73 73 73 73 73 72 72 72 72 72 72 72 72 72 72 71 71 71 71 71 70 69 69 69 69 69 69 69 69 69 68 68 68
25 29 19 18 21 22 25 20 19 26 20 14 12 9 7 8 21 34 35 37 39 39 38 44 49 51 50 53 59 61 61 62 64 65 66 67 67 68 68 68 68 68 69 69 69 69 68 69 70 71 71 72 72 72 72 72 72 72 72 72 72 72 72 73 73 73 72 72 72 72 72 72 72 72 72 71 72 71 71 71 71 71 71 70 70 70 69 69 69 69 69 69 69 69 68 68 68
21 21 23 19 24 18 16 13 11 10 10 10 7 6 11 14 14 30 35 35 36 37 40 48 48 48 49 55 57 58 60 62 64 65 66 66 67 67 67 67 68 68 68 68 68 68 68 68 69 70 70 70 71 72 72 72 72 72 72 72 72 71 72 72 72 72 72 72 72 72 72 72 72 71 71 71 72 71 71 71 71 71 71 71 70 70 69 69 69 69 69 69 69 69 68 68 68
19 22 22 26 18 17 18 15 14 13 12 12 8 13 15 21 22 25 28 32 37 42 44 46 48 48 48 51 49 57 60 62 64 65 65 65 66 66 66 66 67 67 67 68 68 68 68 67 68 68 69 69 69 70 71 72 72 72 72 71 72 71 70 70 72 72 72 72 72 72 72 72 72 72 71 72 71 71 71 71 71 71 70 70 70 70 69 69 69 68 69 69 69 68 68 68 67
17 13 18 19 11 15 13 15 14 12 11 11 9 16 16 18 19 25 31 36 36 37 42 44 42 45 48 48 50 58 61 63 64 64 63 61 60 62 65 65 66 66 66 67 67 68 67 67 67 68 68 69 69 69 71 71 72 72 71 70 70 70 70 70 68 72 72 72 72 72 72 72 71 71 72 71 71 71 71 70 71 70 70 70 70 70 69 69 69 69 69 69 69 68 68 67 68
17 20 11 14 9 12 12 16 13 8 7 7 11 16 15 17 27 32 35 35 34 37 38 39 39 48 46 46 52 59 60 61 61 57 55 53 52 51 53 57 60 62 65 66 67 67 67 67 68 68 69 69 69 69 70 71 71 71 71 70 70 69 70 70 70 69 72 72 72 72 70 70 70 70 70 70 71 70 70 70 70 70 70 70 70 70 70 69 69 69 69 69 69 68 68 67 67
16 18 12 13 13 10 16 13 16 12 9 8 9 16 15 20 31 34 37 38 39 40 41 42 43 43 44 43 51 55 56 56 54 53 50 48 48 48 49 49 53 54 56 60 65 67 67 68 68 69 69 69 69 70 71 71 71 71 70 70 70 69 69 70 69 69 70 71 72 71 70 70 69 69 69 71 69 70 70 70 70 70 70 70 70 70 69 69 69 69 69 69 69 68 68 64 65
14 19 15 9 13 14 14 14 11 9 8 7 11 10 15 20 24 23 36 38 39 40 41 41 41 41 41 43 47 51 53 51 50 49 47 47 47 49 46 45 45 45 47 50 56 64 66 67 68 69 69 69 69 69 70 71 70 70 70 70 70 70 70 70 69 70 70 70 70 70 70 69 69 69 69 69 69 70 70 70 70 70 70 70 68 70 69 69 69 69 68 69 68 68 65 63 63
12 14 12 11 15 16 20 10 9 10 9 9 9 10 10 11 20 24 35 38 39 39 40 41 41 40 41 41 44 46 47 46 47 47 46 46 47 46 46 46 45 45 47 48 52 60 65 66 67 68 69 69 69 69 70 69 68 69 69 69 69 69 69 70 69 69 70 69 70 68 68 69 69 68 71 70 71 69 70 70 70 70 70 70 69 69 69 69 69 69 69 69 68 67 62 62 62
12 12 10 10 10 9 10 10 11 11 10 9 10 15 9 12 13 29 36 36 38 40 41 41 40 41 41 41 43 45 46 46 46 47 47 47 48 48 46 46 44 45 47 49 51 56 59 64 67 68 68 68 69 69 68 67 67 67 67 67 67 67 67 66 66 66 66 68 68 67 68 68 67 67 67 67 66 68 68 69 69 68 68 68 69 66 67 68 68 66 65 66 63 63 63 63 61
13 9 10 10 10 9 10 10 11 12 11 10 9 7 11 12 12 29 30 31 36 39 41 41 41 41 41 44 45 46 47 47 48 47 48 48 48 48 50 48 50 49 52 43 45 48 54 60 64 66 67 67 67 67 67 69 67 67 66 66 67 67 66 66 66 66 66 67 67 67 67 66 66 66 66 66 65 67 66 67 69 68 67 67 67 66 66 66 65 64 64 64 62 64 64 64 63
9 8 9 10 9 9 13 13 14 11 9 10 11 9 10 12 19 17 17 23 32 38 41 42 41 41 42 45 46 47 48 47 48 48 48 48 48 49 49 48 47 45 44 45 49 52 50 53 61 66 66 67 67 68 67 66 66 66 66 66 66 66 66 65 65 65 66 66 67 67 66 65 65 65 65 65 65 66 65 65 67 68 68 67 66 66 65 65 64 63 62 62 61 61 62 63 62
8 7 8 9 10 9 12 13 12 11 8 11 14 16 11 11 14 22 33 35 30 36 42 42 41 42 43 45 47 49 48 47 48 48 47 47 49 49 49 47 45 45 44 44 45 49 53 53 56 64 66 66 66 66 66 65 65 66 67 67 66 68 66 65 65 65 66 66 67 66 66 65 65 64 64 65 65 65 65 65 66 67 67 67 66 66 65 64 63 62 61 61 61 61 61 61 60
8 7 8 8 8 9 9 11 9 10 11 14 14 11 13 11 13 28 34 38 39 41 42 43 43 43 44 46 48 49 48 47 46 46 48 47 49 51 49 47 47 45 43 44 45 49 53 54 54 57 64 66 65 66 65 65 65 65 65 65 65 67 64 65 65 65 65 66 65 66 66 65 65 65 64 65 65 65 65 65 66 66 66 66 66 64 64 63 63 63 62 61 60 60 60 60 60
10 9 10 8 13 11 10 13 12 10 12 12 10 12 13 15 25 29 35 39 41 42 42 43 42 43 43 47 49 47 45 45 47 47 48 50 50 48 48 45 45 44 47 48 47 49 51 50 50 54 59 64 64 65 64 64 64 63 64 65 65 65 62 63 65 65 64 65 65 66 66 65 65 65 65 65 65 65 65 65 65 66 67 66 66 64 63 63 63 63 62 61 60 60 59 59 60
12 8 8 7 11 12 12 9 12 10 16 10 10 11 10 12 13 14 27 39 41 41 41 41 41 42 43 46 49 46 45 46 47 49 49 48 47 47 48 47 46 47 49 50 51 52 54 50 50 53 59 64 62 63 62 63 63 62 64 64 62 61 62 64 64 64 65 65 65 66 66 66 65 65 65 65 65 65 65 64 65 66 66 66 66 64 66 66 64 62 61 61 61 60 59 59 60
8 9 7 12 13 15 12 13 10 8 12 9 8 8 9 8 11 20 30 38 40 39 39 40 40 41 42 45 47 46 46 47 47 47 47 46 45 46 45 45 46 48 49 50 50 51 51 50 50 52 54 58 58 60 62 61 61 62 63 60 60 61 62 61 63 64 66 64 66 66 66 66 66 65 65 65 65 65 65 65 65 65 65 66 67 66 65 66 65 64 61 62 61 61 60 60 59
9 10 14 10 14 16 12 9 11 10 11 9 11 9 7 10 8 18 33 36 37 37 37 38 39 41 42 45 48 46 45 46 46 45 46 45 46 46 45 47 48 49 50 51 51 50 49 49 49 51 51 51 51 51 55 58 60 61 60 58 60 62 60 60 61 63 63 64 64 64 65 66 65 65 64 65 65 64 65 66 65 65 66 67 66 66 66 65 65 64 63 63 62 62 61 61 58
10 10 10 9 10 8 10 12 13 8 10 8 7 7 13 10 9 7 21 34 35 35 36 37 39 41 42 45 47 45 45 45 44 45 45 46 47 46 46 49 50 49 50 51 50 50 52 53 53 53 54 53 51 51 54 55 56 57 58 58 62 60 59 59 61 61 63 64 65 64 65 65 65 65 65 65 65 65 65 65 66 66 66 66 66 66 65 65 64 64 64 63 64 62 61 60 58
5 6 10 10 7 10 12 12 11 10 11 7 7 9 8 11 11 12 12 26 34 35 36 37 39 41 42 45 46 43 44 43 44 46 47 48 48 47 48 50 49 50 51 49 49 52 52 52 53 52 53 50 51 51 50 51 52 53 51 53 59 59 59 58 58 58 60 62 64 63 64 65 65 65 65 65 65 64 64 65 65 66 67 66 66 66 65 65 64 64 64 63 63 62 61 60 57
9 6 9 15 7 10 9 16 10 8 10 9 6 15 8 9 10 10 12 13 30 34 35 37 39 40 42 44 44 42 42 43 45 47 48 49 49 48 48 48 49 50 49 49 51 51 52 52 52 52 51 51 50 51 51 51 52 54 55 57 56 57 57 56 56 56 59 61 62 61 61 63 65 65 65 64 64 64 64 64 65 66 66 65 65 65 65 65 65 64 65 64 62 62 60 58 58
15 8 20 16 12 7 5 6 11 10 8 9 6 9 13 10 9 9 19 11 17 29 33 36 38 39 41 44 43 41 41 42 44 46 49 49 48 48 47 47 48 49 49 50 49 50 50 53 54 51 50 51 52 52 52 52 52 51 51 51 51 52 51 53 57 59 60 60 59 59 60 63 64 65 64 64 64 64 65 65 65 66 66 66 65 65 65 65 65 65 65 65 64 62 61 58 56
17 19 10 20 11 12 7 9 9 12 7 6 6 8 17 15 17 16 17 12 12 20 30 35 38 39 40 43 42 40 41 41 43 46 49 48 48 48 48 50 48 49 49 49 49 49 49 50 50 50 52 51 51 51 52 52 52 54 53 55 57 52 53 54 56 58 58 58 57 57 60 62 63 65 65 64 64 65 64 64 65 65 66 66 65 65 64 64 64 65 64 65 66 64 62 60 57
14 25 21 21 18 14 11 9 7 7 7 8 9 8 9 12 19 21 18 12 13 17 29 35 37 37 38 42 41 40 40 40 41 46 48 48 49 48 47 48 49 49 49 49 49 49 49 49 52 54 52 52 52 52 55 54 52 51 52 53 52 52 54 54 55 55 56 57 57 58 59 59 60 61 62 63 63 63 63 64 64 64 65 66 65 65 65 65 64 64 64 64 65 65 64 63 62
24 24 23 26 19 20 17 18 17 7 10 7 9 7 8 13 16 20 21 23 17 18 29 34 36 36 37 40 41 40 41 40 41 46 49 49 49 48 47 48 49 48 48 49 50 48 47 50 52 54 52 53 52 53 53 49 47 49 49 50 50 52 53 55 54 53 55 56 57 58 57 56 57 58 59 60 60 61 61 62 63 63 64 64 64 63 62 63 64 64 63 64 63 64 64 64 63
31 31 26 23 18 19 17 18 25 28 14 12 13 12 11 14 20 23 25 24 22 17 27 33 35 36 35 38 40 40 40 40 40 47 48 48 49 47 48 48 48 47 48 49 48 47 48 51 53 52 51 53 52 53 51 47 42 44 47 46 47 50 53 53 54 53 54 55 55 56 57 56 56 56 57 57 57 62 59 60 61 62 62 63 62 62 64 64 64 64 64 63 63 62 62 64 65
27 29 24 15 24 18 18 28 33 28 16 17 27 23 23 25 28 27 28 23 19 22 22 30 33 34 34 36 39 39 40 41 42 48 48 49 48 48 49 48 48 46 47 48 48 47 49 52 52 51 51 53 52 53 53 50 48 41 43 45 49 52 52 51 51 52 53 56 55 55 55 54 54 55 56 55 57 56 57 58 59 59 60 60 60 62 62 62 63 63 64 63 63 63 62 64 66
32 21 21 18 18 18 21 35 36 31 32 23 28 24 26 28 28 29 25 26 26 26 23 25 31 33 32 34 37 39 39 40 43 47 47 48 48 48 48 47 47 45 47 48 48 48 51 53 51 52 52 53 52 53 49 47 50 50 47 48 50 50 51 52 52 54 55 55 54 54 54 53 53 54 54 56 55 56 56 57 57 58 58 60 59 59 59 60 62 62 62 62 62 62 62 63 64
22 24 19 17 23 20 17 28 35 33 27 22 27 25 28 33 32 29 29 25 27 33 33 34 34 31 31 32 35 38 37 40 42 46 46 47 47 46 47 47 46 46 47 48 48 48 52 53 51 52 53 53 54 53 50 49 51 50 50 50 50 51 50 56 53 53 53 53 52 53 53 52 53 53 53 55 54 55 55 56 56 57 58 59 58 58 58 58 58 60 61 61 62 60 61 61 63
33 27 24 22 25 25 19 23 32 36 33 32 25 25 23 31 22 22 24 28 31 30 28 28 32 33 33 34 34 38 36 39 41 45 45 47 47 45 45 46 46 46 47 47 48 49 52 52 52 53 52 53 53 54 51 52 52 51 52 52 53 52 51 49 48 49 52 54 52 51 50 52 53 52 53 54 56 54 54 55 55 55 55 56 57 56 57 57 59 59 59 60 61 60 59 61 62
28 32 27 26 28 28 30 31 25 24 20 31 26 15 21 28 28 26 25 28 25 27 25 24 22 29 31 32 31 34 38 40 42 45 45 46 46 45 45 46 45 45 46 48 48 49 52 52 52 53 52 52 52 51 51 51 49 49 49 49 48 48 48 46 46 47 50 49 49 51 52 52 52 52 52 53 55 56 53 54 54 55 55 55 56 55 55 55 55 57 59 60 60 61 60 59 59
22 25 35 32 30 31 30 29 25 17 15 23 30 15 17 25 22 23 25 26 24 25 26 23 22 26 31 31 31 33 35 39 42 45 45 46 46 46 45 45 45 45 46 48 49 49 53 52 53 53 52 51 53 50 52 52 49 49 49 48 49 49 49 47 47 48 50 50 51 51 51 51 52 51 52 51 52 54 53 53 54 54 54 55 56 54 53 54 55 56 57 57 59 60 60 59 59
20 31 32 31 29 28 29 29 24 22 30 29 31 21 15 17 19 22 23 25 24 23 23 26 24 24 28 29 29 32 36 40 41 45 45 45 46 46 46 46 46 45 46 48 49 51 53 53 53 52 52 52 52 51 51 51 49 50 50 50 51 50 47 47 49 50 50 52 50 51 51 51 53 52 52 51 52 53 53 53 52 52 53 54 55 54 53 54 54 54 56 55 56 57 59 60 60
23 32 32 30 29 32 29 22 21 22 16 15 21 29 16 19 22 27 27 22 22 22 22 23 25 24 26 27 28 31 34 39 40 44 44 45 46 46 47 47 47 46 47 48 50 51 53 54 54 53 52 51 51 51 51 51 51 51 51 52 52 51 48 50 51 52 52 51 49 51 51 51 50 52 52 51 51 52 56 51 50 51 52 52 55 54 53 54 53 53 54 55 55 56 57 58 60
30 35 34 31 32 32 26 22 16 20 13 12 19 26 15 17 23 24 24 21 22 22 23 22 24 25 24 24 26 28 29 36 39 42 44 45 46 47 48 48 48 48 48 50 51 52 53 55 54 53 52 50 51 51 51 52 52 53 51 51 51 51 50 50 50 50 50 50 49 49 50 50 49 48 50 51 50 52 51 53 51 50 50 53 55 52 52 52 53 53 53 54 54 54 55 55 56
36 30 24 21 26 23 26 21 20 20 9 14 19 27 20 13 20 20 20 22 21 20 21 24 24 25 24 25 24 25 26 33 37 40 43 45 46 47 49 49 49 49 50 51 52 53 53 55 54 53 52 49 50 50 50 51 53 53 51 49 50 50 50 50 48 48 49 49 49 49 49 48 50 49 50 50 50 51 51 55 50 50 52 53 52 51 51 52 52 52 52 52 52 53 53 54 55
27 24 21 21 19 20 21 19 19 8 9 16 18 25 25 13 16 21 25 25 24 23 21 19 25 24 24 25 25 24 25 28 37 41 42 44 46 47 49 49 50 50 51 52 52 53 53 55 54 53 52 49 49 50 49 51 52 52 50 48 49 49 50 50 48 48 49 49 50 49 49 49 50 51 50 49 48 50 51 50 53 51 52 51 51 51 52 52 51 51 51 51 51 51 52 53 52
18 19 17 15 12 14 7 15 7 8 10 15 24 25 19 18 16 18 19 20 21 23 24 22 24 24 24 24 24 24 25 27 36 42 42 44 45 47 48 49 50 50 51 52 52 52 52 54 54 53 52 49 49 50 49 49 52 51 49 48 49 49 49 50 49 49 49 48 50 49 48 49 48 50 50 49 49 49 52 50 50 50 50 51 51 50 50 50 50 50 50 50 50 50 51 51 51
15 12 15 12 6 5 1 9 11 16 19 24 23 26 16 21 21 25 23 23 23 23 25 27 26 25 25 24 24 24 26 27 33 42 43 43 44 47 48 49 50 50 51 52 52 52 52 53 54 53 52 50 49 49 48 48 51 51 49 48 50 49 50 49 49 48 50 48 50 50 49 48 48 48 49 49 50 50 51 51 51 50 50 50 50 49 49 49 50 50 49 49 49 49 49 49 50
10 14 13 15 15 12 4 10 4 8 13 20 29 13 16 12 19 24 23 23 23 25 25 24 29 28 27 26 23 24 28 31 32 40 43 43 44 46 47 48 49 50 51 51 52 52 52 52 53 53 52 51 49 49 48 48 50 50 49 49 49 49 49 49 49 48 50 49 49 49 49 48 48 48 49 49 50 49 50 49 49 49 49 48 48 48 49 48 48 48 49 49 49 48 48 49 49
20 23 14 15 13 22 10 15 14 16 13 12 14 15 20 21 25 25 23 25 26 27 26 30 26 28 30 30 27 28 31 32 34 38 43 43 44 45 46 47 48 50 51 52 52 52 52 52 52 53 52 52 50 49 48 48 49 50 49 50 49 51 50 50 50 51 50 50 49 49 49 48 48 48 47 49 49 48 48 48 50 48 49 48 49 49 48 48 48 47 47 47 47 51 49 48 48
24 10 16 14 19 17 16 21 22 17 20 13 17 17 19 24 17 23 22 23 25 27 26 27 28 30 30 29 29 29 27 25 33 37 42 43 44 45 45 46 47 49 51 52 52 52 52 52 52 52 52 52 51 50 49 48 48 49 50 50 50 51 50 50 50 51 50 50 50 49 49 49 48 48 49 49 48 48 48 48 48 48 48 48 48 49 48 47 47 46 46 46 46 47 48 47 47
15 12 15 20 23 30 19 12 18 11 8 14 14 12 16 12 14 22 20 24 25 27 28 28 30 29 30 31 31 32 33 31 31 35 37 42 43 45 45 45 46 47 49 51 52 52 52 52 52 52 53 52 51 50 49 48 48 48 49 50 50 51 51 50 50 50 50 50 49 49 49 49 48 49 50 49 47 48 49 53 47 48 47 47 47 47 47 47 46 46 46 46 46 46 46 46 47
13 17 29 22 23 15 24 20 6 6 6 6 13 17 14 15 16 19 20 24 25 27 28 28 28 28 27 28 28 28 32 34 33 34 38 40 43 44 45 45 45 46 48 51 52 52 52 52 52 52 52 52 52 51 50 50 49 49 50 50 50 51 51 50 50 50 50 50 49 49 49 49 48 48 50 48 47 47 46 47 46 46 46 47 46 46 46 46 46 45 45 45 45 45 45 45 46
23 17 17 19 18 19 11 16 20 13 6 3 10 13 11 20 18 22 24 26 25 27 29 30 30 30 29 28 28 27 29 34 36 34 36 40 43 44 43 45 46 47 48 50 51 52 52 52 53 52 53 53 52 51 51 50 50 49 49 50 50 50 51 50 50 49 50 49 49 49 48 47 48 50 47 47 46 46 46 45 46 46 45 45 45 45 45 44 44 44 44 45 45 45 45 44 45
18 16 16 19 24 24 18 22 16 12 6 5 7 9 16 20 25 25 26 26 27 28 29 30 30 29 29 28 28 27 26 31 34 35 35 38 43 43 44 45 46 47 48 49 51 52 53 53 53 53 53 53 52 51 51 51 51 50 50 50 50 50 50 50 49 49 49 49 49 49 48 48 48 47 47 46 46 46 46 46 45 46 45 44 43 43 43 43 43 43 43 44 44 44 44 44 45
18 16 16 15 15 12 11 14 24 24 18 12 11 14 20 24 33 29 27 28 27 26 26 29 27 26 27 27 25 25 25 28 31 32 36 37 37 44 45 46 48 48 48 50 52 53 54 54 54 54 54 53 52 52 51 51 51 51 50 50 50 50 49 49 48 49 48 48 49 48 48 48 47 47 47 46 46 45 45 45 44 44 44 44 43 43 43 42 42 42 42 44 44 43 43 44 43